Tracking 29892 objects as of 21-Nov-2024
HD Live streaming from Space Station
objects crossing your sky now

STARLINK-5011

Track STARLINK-5011 now!
10-day predictions
STARLINK-5011 is classified as:


NORAD ID: 53925
Int'l Code: 2022-119AR
Perigee: 545.8 km
Apogee: 547.9 km
Inclination: 53.2 °
Period: 95.4 minutes
Semi major axis: 6917 km
RCS: Unknown
Launch date: September 24, 2022
Source: United States (US)
Launch site: AIR FORCE EASTERN TEST RANGE (AFETR)
Your satellite tracking list
Your tracking list is empty




NASA's NSSDC Master Catalog

Two Line Element Set (TLE):
1 53925U 22119AR  24325.29818256  .00000447  00000-0  46202-4 0  9999
2 53925  53.2174 283.3423 0001524  92.5568 267.5598 15.08842777120217
Source of the keplerian elements: AFSPC